Date,TemperatureHighF,TemperatureAvgF,TemperatureLowF,DewpointHighF,DewpointAvgF,DewpointLowF,HumidityHigh,HumidityAvg,HumidityLow,PressureMaxIn,PressureMinIn,WindSpeedMaxMPH,WindSpeedAvgMPH,GustSpeedMaxMPH,PrecipitationSumIn
2013-2-1,57,49,37,36,29,16,79,49,22,30.36,30.18,29,7,29,0.00
2013-2-2,56,44,32,45,35,23,95,71,54,30.37,30.11,9,3,11,0.00
2013-2-3,61,52,44,44,37,33,83,59,37,30.11,29.95,19,6,23,0.00
2013-2-4,54,45,35,42,38,32,94,77,48,30.15,30.05,7,1,11,0.00
2013-2-5,65,52,40,53,47,38,98,85,60,30.09,29.97,12,2,16,0.00
2013-2-6,69,57,49,57,52,47,97,85,58,30.17,30.03,10,1,11,0.00
2013-2-7,62,56,49,61,55,48,99,96,91,30.16,29.71,19,6,20,1.67
2013-2-8,64,55,49,60,50,47,98,85,67,30.07,29.73,16,6,20,0.00
2013-2-9,61,50,42,50,40,27,96,72,28,30.34,30.06,13,4,17,0.00
2013-2-10,65,54,40,57,50,39,98,84,70,30.38,30.19,18,5,19,0.01
2013-2-11,64,62,59,62,60,58,98,94,86,30.22,30.06,9,2,13,2.01
2013-2-12,60,56,52,59,55,51,99,95,77,30.12,29.87,12,4,19,1.71
2013-2-13,73,61,53,67,56,47,99,86,46,29.90,29.71,35,5,35,0.86
2013-2-14,53,49,45,49,45,43,96,87,77,30.09,29.86,15,2,18,0.00
2013-2-15,46,44,44,45,44,42,98,96,93,30.07,30.04,5,2,9,0.00
2013-2-21,60,50,39,52,44,38,98,82,51,30.18,30.09,11,3,12,0.00
2013-2-22,64,57,50,63,54,47,98,90,74,30.17,30.03,22,8,28,0.37
2013-2-23,61,53,47,61,53,47,100,99,97,30.04,29.81,12,3,17,2.44
2013-2-24,67,56,49,58,52,47,99,88,49,30.00,29.77,12,4,14,0.00
2013-2-25,54,49,43,53,48,42,99,96,87,30.06,29.92,19,7,29,0.66
2013-2-26,68,62,46,67,59,45,99,92,71,29.94,29.59,23,8,29,0.77
2013-2-27,60,54,49,54,44,38,89,72,61,29.92,29.72,15,6,20,0.00
2013-2-28,60,53,48,45,38,31,84,59,36,29.91,29.80,22,8,25,0.00